TimeCST,TemperatureF,Dew PointF,Humidity,Sea Level PressureIn,VisibilityMPH,Wind Direction,Wind SpeedMPH,Gust SpeedMPH,PrecipitationIn,Events,Conditions,WindDirDegrees,DateUTC
6:00 AM,72,71,94,29.87,0,Calm,Calm,,,Fog,Heavy Fog,,2013-09-23 12:00:00
6:00 AM,71.6,69.8,94,29.86,0.4,Calm,Calm,-,N/A,Fog,Fog,0,2013-09-23 12:00:00
7:00 AM,73.4,71.6,94,29.89,6.2,Calm,Calm,-,N/A,,Mostly Cloudy,0,2013-09-23 13:00:00
7:25 AM,77.0,71.6,83,29.88,6.2,Calm,Calm,-,N/A,,Scattered Clouds,0,2013-09-23 13:25:00
8:00 AM,78.8,71.6,78,29.89,6.2,Calm,Calm,-,N/A,,Scattered Clouds,0,2013-09-23 14:00:00
9:00 AM,82,73,69,29.91,12,WNW,3.5,,,,Partly Cloudy,290,2013-09-23 15:00:00
9:00 AM,82.4,73.4,74,29.90,6.2,WNW,3.5,-,N/A,,Mostly Cloudy,290,2013-09-23 15:00:00
10:00 AM,82.4,73.4,74,29.89,6.2,WSW,4.6,-,N/A,,Scattered Clouds,250,2013-09-23 16:00:00
11:00 AM,84.2,71.6,66,29.88,6.2,NW,5.8,-,N/A,,Mostly Cloudy,310,2013-09-23 17:00:00
12:00 PM,84,72,59,29.88,12,West,9.2,,,,Overcast,280,2013-09-23 18:00:00
12:00 PM,84.2,71.6,66,29.86,6.2,West,9.2,-,N/A,,Mostly Cloudy,280,2013-09-23 18:00:00
1:00 PM,84.2,73.4,70,29.84,6.2,West,8.1,-,N/A,,Mostly Cloudy,270,2013-09-23 19:00:00
2:00 PM,84.2,73.4,70,29.81,6.2,WNW,10.4,-,N/A,,Mostly Cloudy,290,2013-09-23 20:00:00
3:00 PM,82,73,69,29.81,12,West,10.4,,,,Overcast,280,2013-09-23 21:00:00
3:00 PM,82.4,73.4,74,29.80,6.2,West,10.4,-,N/A,,Mostly Cloudy,280,2013-09-23 21:00:00
4:00 PM,82.4,75.2,79,29.79,6.2,West,11.5,-,N/A,,Mostly Cloudy,280,2013-09-23 22:00:00
5:00 PM,80.6,73.4,79,29.79,6.2,West,9.2,-,N/A,,Overcast,280,2013-09-23 23:00:00
6:00 PM,80,74,77,29.83,12,West,8.1,,,,Overcast,270,2013-09-24 00:00:00
6:00 PM,78.8,73.4,83,29.82,6.2,West,8.1,-,N/A,,Mostly Cloudy,270,2013-09-24 00:00:00
7:00 PM,78.8,73.4,83,29.84,6.2,West,8.1,-,N/A,,Mostly Cloudy,270,2013-09-24 01:00:00
8:00 PM,78.8,75.2,89,29.86,6.2,West,4.6,-,N/A,,Mostly Cloudy,280,2013-09-24 02:00:00